COSMOS 1275 DEB, 12729

Orbit data source: Space-Track

COSMOS 1275 DEB, 12729 is space debris in LEO originally from a launch on Thu, 04 Jun 1981 UTC launched from the Plesetsk Missile And Space Complex (PKMTR). Debris objects in space refer to the collection of defunct objects orbiting the Earth. Examples of debris include non-operational satellites, rocket bodies, and fragments generated from explosions, collisions, or faulty payload assembly.

Loading next visibility...
Identifier
12729, 1981-053BW
Orbit
LEO
Country
Flag of CISCIS
Related business
Manufacturer
Unknown
Mission
Spacecraft
Bus & Motor
Unknown
Mass
Unknown
Launch date (UTC)
1981-06-04 (45 years ago)
Launch vehicle
Unknown
Launch site
Plesetsk Missile And Space Complex (PKMTR)
Object type
Payload
Rocket body
Debris
Shape & HBR
Unknown shape, 0.1 m
Radar Cross Section
Small (<0.1 m²)

Expand to show TLE details & history
Last TLE update: 22 hours ago

TLE from 22 hours ago
0 COSMOS 1275 DEB
1 12729U 81053BW  25338.70593498  .00000813  00000-0  10122-2 0  9994
2 12729  83.0452 237.3948 0128826 304.7563  85.5676 13.60203495 53217
Epoch: 2025-12-04T16:56Z
TLE epoch observation values (Epoch: 2025-12-04T16:56:32.782Z)
Latitude
31.59198°
Longitude
-86.22013°
Altitude
1,032.805 km
Speed
7.341 km/s
True Right ascension
16h 06m 41s
True Declination
31° 26' 40"
Sunlit
Object was in daylight at epoch
Visualization orbit readout
Latitude
Unknown
Longitude
Unknown
Altitude
Unknown
Speed
Unknown
Apparent Right ascension
Unknown
Apparent Declination
Unknown
Sunlit
N/A
Visualization observer readout
Local Sidereal Time
12:49:30
Azimuth
Unknown
Elevation
Unknown
Doppler factor
Unknown
Orbital elements
Apogee altitude
1,127.581 km
Perigee altitude
936.654 km
Semi-major axis
7,410.254 km
Eccentricity
0.01288
Inclination
83.0452°
RAAN
237.3948°
Arg. of periapsis
304.7563°
True anomaly
87.04109°
Mean anomaly
85.5676°
Eccentric anomaly
86.30418°
Mean motion
3.40246 °/min
Orbital period
105.81 mins
BSTAR
0.0010122
Loading maneuver chart data...
Computing Atmospheric mass density...

Documentation

Showing up to 5 results
|